Location: Banksville Park
(38.5557°N, 75.1182°W)
Time: 18:55:20
(UTC+00:00)

SAR-Lupe-1 - Pass Details

Date: 17 January 2021
Orbit: 482 x 484 km, 98.2° (Epoch: 05 March)

Event Time Altitude Azimuth Distance (km) Brightness Sun altitude
Rises 11:36:54 0° 205° (SSW) 2,535 7.7 -7.8°
Reaches altitude 10° 11:39:40 10° 229° (SW) 1,661 6.5 -7.3°
Maximum altitude 11:41:47 15° 266° (W) 1,383 5.8 -6.9°
Drops below altitude 10° 11:43:55 10° 302° (WNW) 1,669 6.1 -6.5°
Enters shadow 11:45:01 - 315° (NW) 1,981 6.6 -6.3°
